GW3011 Weather Reports


time (UTC)temp
F
wind
direction
speed
knots
gust
knots
rain 1hr
in
rain 24hr
in
rain mn
in
humidity
%
barometer
mb
20260510180506 69 292 0.0 0.0 0.00 0.12 0.12 69 1012.3
20260510180004 70 276 1.7 1.7 0.00 0.12 0.12 68 1012.1
20260510175459 71 262 1.7 2.6 0.00 0.12 0.12 66 1012.4
20260510174954 70 304 0.0 0.9 0.00 0.12 0.12 66 1012.1
20260510174453 68 301 0.0 0.0 0.00 0.12 0.12 69 1012.1
20260510173950 69 294 0.9 1.7 0.00 0.12 0.12 69 1012.1
20260510173445 69 306 0.9 0.9 0.00 0.12 0.12 69 1012.5
20260510172942 69 19 0.0 0.0 0.00 0.12 0.12 69 1012.3
20260510172438 68 307 0.0 0.0 0.00 0.12 0.12 68 1012.2
20260510171934 68 241 1.7 1.7 0.00 0.12 0.12 71 1012.2
20260510171431 68 304 1.7 1.7 0.00 0.12 0.12 71 1012.2
20260510170928 68 226 1.7 2.6 0.00 0.12 0.12 70 1012.5
20260510170425 67 292 0.0 0.0 0.00 0.12 0.12 72 1012.4
20260510165920 67 313 1.7 2.6 0.00 0.12 0.12 73 1012.5
20260510165417 67 284 0.9 0.9 0.00 0.12 0.12 71 1012.2
20260510164913 66 197 0.9 1.7 0.00 0.12 0.12 73 1012.6
20260510164410 65 301 0.0 0.0 0.00 0.12 0.12 75 1012.5
20260510163905 64 296 0.0 0.0 0.00 0.12 0.12 75 1012.6
20260510163401 64 293 1.7 1.7 0.00 0.12 0.12 78 1012.6
20260510162855 64 292 0.9 1.7 0.00 0.12 0.12 76 1012.8
20260510162354 64 251 1.7 2.6 0.00 0.12 0.12 77 1012.6
20260510161848 64 281 0.0 0.0 0.00 0.12 0.12 75 1012.9
20260510161344 64 281 0.0 0.0 0.00 0.12 0.12 77 1012.6
20260510160841 63 297 0.0 0.0 0.00 0.12 0.12 79 1012.6
20260510160338 63 256 1.7 1.7 0.00 0.12 0.12 79 1012.7
20260510155832 64 231 0.0 0.0 0.00 0.12 0.12 77 1012.7
20260510155330 63 206 2.6 5.2 0.00 0.12 0.12 79 1012.8
20260510154825 62 351 0.9 2.6 0.00 0.12 0.12 80 1012.8
20260510154322 62 296 0.0 0.0 0.00 0.12 0.12 81 1012.9
20260510153816 62 273 0.9 1.7 0.00 0.12 0.12 80 1013.0
20260510153312 63 268 2.6 3.5 0.00 0.12 0.12 79 1013.0
20260510152809 62 286 0.9 0.9 0.00 0.12 0.12 82 1013.0
20260510152307 61 311 0.0 0.0 0.00 0.12 0.12 84 1012.8
20260510151803 60 283 0.9 0.9 0.00 0.12 0.12 84 1012.8
20260510151300 60 313 0.9 0.9 0.00 0.12 0.12 85 1013.1
20260510150756 60 294 0.9 0.9 0.00 0.12 0.12 85 1012.8
20260510150252 60 311 0.0 0.0 0.00 0.12 0.12 85 1012.9
20260510145748 60 205 1.7 1.7 0.00 0.12 0.12 86 1013.0
20260510145245 59 323 0.9 0.9 0.00 0.12 0.12 88 1013.0
20260510144741 59 269 0.9 0.9 0.00 0.12 0.12 88 1012.8
20260510144238 58 320 0.0 0.9 0.00 0.12 0.12 90 1012.8
20260510143732 57 259 1.7 2.6 0.00 0.12 0.12 91 1012.8
20260510143229 58 305 0.9 1.7 0.00 0.12 0.12 91 1013.0
20260510142725 58 255 1.7 2.6 0.00 0.12 0.12 90 1013.0
20260510142222 58 307 1.7 2.6 0.00 0.12 0.12 91 1012.9
20260510141719 57 297 0.9 0.9 0.00 0.12 0.12 91 1012.8
20260510141218 57 306 0.0 0.0 0.00 0.12 0.12 91 1012.9
20260510140713 57 306 0.0 0.0 0.00 0.12 0.12 91 1012.7
20260510140208 57 294 0.9 0.9 0.00 0.12 0.12 91 1012.5
20260510135703 57 234 0.9 0.9 0.00 0.12 0.12 91 1012.6
20260510135159 57 169 0.9 0.9 0.00 0.12 0.12 91 1012.5
20260510134656 56 307 0.0 0.0 0.00 0.12 0.12 92 1012.3
20260510134153 56 65 2.6 2.6 0.00 0.12 0.12 92 1012.5
20260510133649 56 318 0.0 0.0 0.00 0.12 0.12 92 1012.8
20260510133145 56 304 0.0 0.0 0.00 0.12 0.12 93 1012.7
20260510132641 56 307 0.0 0.0 0.00 0.12 0.12 93 1012.7
20260510132139 55 298 0.0 0.0 0.00 0.12 0.12 93 1012.6
20260510131636 55 253 0.9 1.7 0.00 0.12 0.12 94 1012.5
20260510131134 55 354 0.0 0.0 0.00 0.12 0.12 95 1012.3
20260510130630 55 333 0.0 0.0 0.00 0.12 0.12 95 1012.1
20260510130127 54 349 0.9 0.9 0.00 0.12 0.12 95 1012.4
20260510125624 54 343 0.9 1.7 0.00 0.12 0.12 95 1012.1
20260510125120 55 354 0.9 0.9 0.00 0.12 0.12 95 1012.1
20260510124617 55 0 0.9 1.7 0.00 0.12 0.12 95 1012.1
20260510124114 54 307 0.0 0.0 0.00 0.12 0.12 95 1012.1
20260510123609 55 345 0.9 0.9 0.00 0.12 0.12 95 1012.1
20260510123105 54 238 0.9 0.9 0.00 0.12 0.12 95 1012.1
20260510122601 54 305 0.0 0.0 0.00 0.12 0.12 96 1012.2
20260510122057 54 161 0.9 1.7 0.00 0.12 0.12 96 1012.1
20260510121554 54 325 0.0 0.0 0.00 0.12 0.12 96 1011.7
20260510121051 54 342 0.0 0.0 0.00 0.12 0.12 97 1012.0
20260510120549 54 314 0.0 0.0 0.00 0.12 0.12 98 1011.9
20260510120044 53 314 0.0 0.9 0.00 0.12 0.12 98 1011.9
20260510115541 54 310 0.0 0.0 0.00 0.12 0.12 99 1011.6
20260510115038 53 324 0.0 0.0 0.00 0.12 0.12 99 1011.9
20260510114534 53 309 0.0 0.0 0.00 0.12 0.12 99 1011.7
20260510114030 53 315 0.0 0.0 0.00 0.12 0.12 99 1011.9
20260510113526 53 342 0.9 0.9 0.00 0.12 0.12 99 1011.6
20260510113024 53 331 1.7 2.6 0.00 0.12 0.12 99 1011.4
20260510112520 53 317 0.0 0.0 0.00 0.12 0.12 99 1011.4
20260510112016 53 307 0.0 0.0 0.00 0.12 0.12 99 1011.4
20260510111513 53 316 0.0 0.0 0.00 0.12 0.12 99 1011.2
20260510111009 53 328 0.0 0.0 0.00 0.12 0.12 99 1011.0
20260510110505 53 311 0.0 0.9 0.00 0.12 0.12 99 1011.0
20260510110002 53 307 0.9 1.7 0.00 0.12 0.12 99 1010.8
20260510105456 52 312 0.0 0.0 0.00 0.12 0.12 99 1010.9
20260510104952 52 312 0.0 0.0 0.00 0.12 0.12 99 1011.0
20260510104449 52 312 0.0 0.0 0.00 0.12 0.12 99 1011.2
20260510103945 53 317 0.0 0.0 0.00 0.12 0.12 99 1011.4
20260510103443 52 323 0.9 1.7 0.00 0.12 0.12 99 1011.1
20260510102938 52 313 0.0 1.7 0.00 0.12 0.12 99 1010.9
20260510102434 52 334 0.0 0.9 0.00 0.12 0.12 99 1010.8
20260510101931 52 326 2.6 3.5 0.00 0.12 0.12 99 1010.7
20260510101429 52 320 0.0 0.0 0.00 0.12 0.12 99 1011.1
20260510100927 52 327 0.9 1.7 0.00 0.12 0.12 99 1010.9
20260510100423 52 312 0.0 0.9 0.00 0.12 0.12 99 1010.8
20260510095919 52 305 0.0 0.0 0.00 0.12 0.12 99 1011.0
20260510095415 52 313 0.9 1.7 0.00 0.12 0.12 99 1010.9
20260510094914 52 299 0.9 0.9 0.00 0.12 0.12 99 1010.8
20260510094409 52 307 0.0 0.0 0.00 0.12 0.12 99 1011.0
20260510093905 52 314 0.0 0.9 0.00 0.12 0.12 99 1011.3
20260510093401 52 311 0.0 0.0 0.00 0.12 0.12 99 1011.4
20260510092858 52 311 0.9 1.7 0.00 0.12 0.12 99 1011.3
20260510092354 52 307 0.0 0.0 0.00 0.12 0.12 99 1011.5
20260510091849 52 307 0.0 0.0 0.00 0.12 0.12 99 1011.3
20260510091347 53 312 0.0 0.0 0.00 0.12 0.12 99 1011.6
20260510090843 53 307 0.0 0.9 0.00 0.12 0.12 99 1011.2
20260510090339 53 348 1.7 1.7 0.00 0.12 0.12 99 1011.2
20260510085835 53 308 0.0 0.9 0.00 0.12 0.12 99 1011.4
20260510085330 53 307 0.0 0.0 0.00 0.12 0.12 99 1011.3
20260510084826 53 301 0.9 0.9 0.00 0.12 0.12 99 1011.4
20260510084324 52 300 1.7 1.7 0.00 0.12 0.12 99 1011.1
20260510083820 52 307 0.0 0.0 0.00 0.12 0.12 99 1010.7
20260510083317 52 311 0.0 0.0 0.00 0.12 0.12 99 1011.0
20260510082812 52 313 0.9 0.9 0.00 0.12 0.12 99 1010.5
20260510082310 53 311 0.0 0.0 0.00 0.12 0.12 99 1010.6
20260510081809 52 317 0.0 0.0 0.00 0.12 0.12 99 1010.9
20260510081305 53 309 0.0 0.0 0.00 0.12 0.12 99 1010.5
20260510080801 52 309 0.0 0.0 0.00 0.12 0.12 99 1010.7
20260510080256 52 309 0.0 0.0 0.00 0.12 0.12 99 1010.5
20260510075753 52 315 0.9 0.9 0.00 0.12 0.12 99 1010.7
20260510075250 52 306 0.0 0.0 0.00 0.12 0.12 99 1010.5
20260510074747 52 310 0.0 0.0 0.00 0.12 0.12 99 1010.5
20260510074244 52 319 0.0 0.9 0.00 0.12 0.12 99 1010.4
20260510073740 52 322 1.7 2.6 0.00 0.12 0.12 99 1010.3
20260510073236 52 314 0.0 0.0 0.00 0.12 0.12 99 1010.4
20260510072732 52 312 0.0 0.0 0.00 0.12 0.12 99 1010.6
20260510072229 53 308 0.0 0.0 0.00 0.12 0.12 99 1010.4
20260510071725 53 314 0.0 0.0 0.00 0.12 0.12 99 1010.4
20260510071222 53 308 0.0 0.0 0.00 0.12 0.12 99 1010.5
20260510070720 53 313 0.0 0.0 0.00 0.12 0.12 99 1010.4
20260510070218 53 308 0.0 0.0 0.00 0.12 0.12 99 1010.6
20260510065712 53 309 0.0 0.0 0.00 0.12 0.12 99 1010.3
20260510065209 53 310 0.0 0.0 0.00 0.12 0.12 99 1010.1
20260510064705 53 311 0.0 0.0 0.00 0.12 0.12 99 1010.4
20260510064203 53 309 0.0 0.0 0.00 0.12 0.12 99 1010.2
20260510063700 53 316 0.0 0.0 0.00 0.12 0.12 99 1010.0
20260510063155 53 318 0.0 0.0 0.00 0.12 0.12 99 1009.8
20260510062652 53 312 0.0 0.0 0.00 0.12 0.12 99 1010.2
20260510062148 52 311 0.0 0.0 0.00 0.12 0.12 99 1010.0
20260510061643 52 323 0.0 0.0 0.00 0.12 0.12 99 1010.1
20260510061141 52 309 0.0 0.0 0.00 0.12 0.12 99 1010.3
20260510060637 52 330 0.0 0.0 0.00 0.12 0.12 99 1010.2
20260510060134 52 310 0.0 0.0 0.00 0.12 0.12 99 1010.5
20260510055630 52 313 0.0 0.0 0.00 0.12 0.12 99 1010.2
20260510055129 52 312 0.0 0.0 0.00 0.12 0.12 99 1010.3
20260510054624 52 317 0.0 0.0 0.00 0.12 0.12 99 1010.4
20260510054119 52 315 0.0 0.9 0.00 0.12 0.12 99 1010.4
20260510053619 52 313 0.0 0.0 0.00 0.12 0.12 99 1010.2
20260510053116 52 325 0.9 0.9 0.00 0.12 0.12 99 1010.3
20260510052611 52 308 0.0 0.0 0.00 0.12 0.12 99 1010.2
20260510052108 52 315 0.0 0.0 0.00 0.12 0.12 99 1010.5
20260510051603 52 311 0.0 0.0 0.00 0.12 0.12 99 1010.4
20260510051101 52 310 0.0 0.0 0.00 0.12 0.12 99 1010.4
20260510050558 52 312 0.0 0.0 0.00 0.12 0.12 99 1010.6
20260510050055 52 307 0.0 0.0 0.00 0.12 0.12 99 1010.6
20260510045552 52 311 0.0 0.0 0.00 0.12 0.12 99 1010.5
20260510045048 52 312 0.0 0.0 0.00 0.12 0.12 99 1010.4
20260510044545 52 309 0.0 0.0 0.00 0.12 0.12 99 1010.7
20260510044042 53 303 0.0 0.0 0.00 0.12 0.12 99 1010.8
20260510043537 52 308 0.0 0.0 0.00 0.12 0.12 99 1010.8
20260510043033 52 312 0.0 0.0 0.00 0.12 0.12 99 1010.6
20260510042533 52 330 0.0 0.0 0.00 0.12 0.12 99 1010.3
20260510042028 53 312 0.0 0.0 0.00 0.12 0.12 99 1010.5
20260510041526 52 311 0.0 0.0 0.00 0.12 0.12 99 1010.4
20260510041023 52 313 0.9 0.9 0.00 0.12 0.12 99 1010.5
20260510040520 53 353 0.9 1.7 0.00 0.12 0.12 99 1010.2
20260510040015 53 339 1.7 1.7 0.00 0.12 0.12 99 1010.5
20260510035512 53 318 0.0 0.9 0.00 0.12 0.12 99 1010.2
20260510035011 53 331 0.0 0.0 0.00 0.12 0.12 99 1010.4
20260510034510 53 309 0.0 0.0 0.00 0.12 0.12 99 1010.2
20260510034006 53 311 0.0 0.0 0.00 0.12 0.12 99 1010.2
20260510033502 53 312 0.0 0.0 0.00 0.12 0.12 99 1010.3
20260510033000 53 308 0.0 0.0 0.00 0.12 0.12 99 1010.1
20260510032456 53 298 0.0 0.0 0.00 0.12 0.12 99 1010.2
20260510031951 53 5 0.9 1.7 0.00 0.12 0.12 99 1010.2
20260510031447 53 311 0.0 0.0 0.00 0.12 0.12 99 1010.0
20260510030943 53 307 0.0 0.0 0.00 0.12 0.12 99 1010.1
20260510030438 53 312 0.0 0.0 0.00 0.12 0.12 99 1009.9
20260510025936 54 342 0.0 0.9 0.00 0.12 0.12 99 1010.2
20260510025433 54 315 0.9 0.9 0.00 0.12 0.12 98 1010.2
20260510024931 54 317 0.0 0.0 0.00 0.12 0.12 98 1010.1
20260510024427 54 306 0.0 0.0 0.00 0.12 0.12 98 1010.2
20260510023923 54 309 0.0 0.0 0.00 0.12 0.12 98 1010.2
20260510023419 54 315 0.9 0.9 0.00 0.12 0.12 98 1010.2
20260510022917 54 349 0.9 1.7 0.00 0.12 0.12 98 1010.1
20260510022415 54 308 0.0 0.0 0.00 0.12 0.12 98 1010.5
20260510021915 54 308 0.0 0.0 0.00 0.12 0.12 98 1010.5
20260510021413 54 317 0.0 0.0 0.00 0.12 0.12 98 1010.0
20260510020909 54 314 0.0 0.0 0.00 0.12 0.12 98 1010.2
20260510020404 54 312 0.0 0.0 0.00 0.12 0.12 98 1010.1
20260510015900 54 314 0.0 0.0 0.00 0.12 0.12 98 1010.4
20260510015356 54 312 0.0 0.0 0.00 0.12 0.12 98 1010.3
20260510014851 54 313 0.0 0.0 0.00 0.12 0.12 97 1010.3
20260510014349 54 314 0.0 0.0 0.00 0.12 0.12 97 1010.0
20260510013845 54 313 0.0 0.0 0.00 0.12 0.12 97 1010.0
20260510013341 54 310 0.0 0.0 0.00 0.12 0.12 97 1010.2
20260510012836 54 312 0.0 0.0 0.00 0.12 0.12 97 1010.0
20260510012335 54 311 0.0 0.0 0.00 0.12 0.12 97 1010.1
20260510011831 54 339 0.0 0.0 0.00 0.12 0.12 97 1010.2
20260510011326 55 312 0.0 0.0 0.00 0.12 0.12 97 1010.0
20260510010823 55 319 0.0 0.0 0.00 0.12 0.12 97 1009.9
20260510010320 55 316 0.0 0.0 0.00 0.12 0.12 97 1009.8
20260510005817 55 309 0.0 0.0 0.00 0.12 0.12 97 1009.7
20260510005313 55 311 0.0 0.0 0.00 0.12 0.12 97 1009.6
20260510004811 55 311 0.0 0.0 0.00 0.12 0.12 97 1009.7
20260510004308 55 309 0.0 0.0 0.00 0.12 0.12 97 1009.8
20260510003806 55 312 0.9 0.9 0.00 0.12 0.12 97 1009.7
20260510003302 55 312 0.0 0.0 0.00 0.12 0.12 97 1009.6
20260510002801 55 314 0.0 0.0 0.00 0.12 0.12 97 1009.8
20260510002259 55 323 0.0 0.0 0.00 0.12 0.12 96 1009.6
20260510001755 55 312 0.0 0.0 0.00 0.12 0.12 96 1009.7
20260510001254 55 311 0.0 0.0 0.00 0.12 0.12 96 1009.6
20260510000749 55 323 0.0 0.0 0.00 0.12 0.12 96 1009.5
20260510000248 55 321 0.0 0.9 0.00 0.12 0.12 96 1009.4
20260509235744 55 310 0.0 0.0 0.00 0.12 0.12 95 1009.5
20260509235240 55 310 0.0 0.0 0.00 0.12 0.12 95 1009.5
20260509234736 55 339 0.0 0.0 0.00 0.12 0.12 95 1009.4
20260509234233 56 316 0.0 0.0 0.00 0.12 0.12 95 1009.5
20260509233731 56 311 0.0 0.0 0.00 0.12 0.12 95 1009.3
20260509233229 56 324 0.0 0.0 0.00 0.12 0.12 95 1009.1
20260509232724 56 312 0.0 0.0 0.00 0.12 0.12 95 1009.3
20260509232222 57 312 0.0 0.0 0.00 0.12 0.12 96 1009.3
20260509231718 57 319 0.9 0.9 0.00 0.12 0.12 96 1009.1
20260509231215 57 314 0.0 0.0 0.00 0.12 0.12 96 1009.2
20260509230712 57 294 0.0 0.0 0.00 0.12 0.12 96 1009.2
20260509230203 57 308 0.0 0.0 0.00 0.12 0.12 96 1009.4
20260509225659 57 309 0.0 0.0 0.00 0.12 0.12 96 1009.5
20260509225154 57 307 0.0 0.9 0.00 0.12 0.12 96 1009.9
20260509224651 57 312 0.0 0.0 0.07 0.12 0.12 95 1010.0
20260509224148 57 306 0.0 0.0 0.12 0.12 0.12 95 1009.8
20260509223645 57 310 0.0 0.0 0.12 0.11 0.11 95 1009.7
20260509223142 57 340 0.9 1.7 0.19 0.10 0.10 94 1010.1
20260509222639 57 310 0.9 0.9 0.17 0.09 0.09 94 1009.9
20260509222134 57 310 0.0 0.0 0.05 0.07 0.07 93 1010.2
20260509221630 57 307 0.0 0.0 0.00 0.06 0.06 93 1010.4
20260509221126 58 308 0.0 0.0 0.07 0.06 0.06 93 1010.1
20260509220622 58 309 0.0 0.0 0.31 0.06 0.06 92 1010.1
20260509220119 58 310 0.0 0.0 0.31 0.05 0.05 91 1009.7
20260509215615 58 306 0.0 0.9 0.12 0.02 0.02 88 1010.8
20260509215112 58 294 0.9 0.9 0.00 0.00 0.00 88 1010.6
20260509214608 58 312 0.0 0.0 0.00 0.00 0.00 88 1009.8
20260509214105 59 314 0.0 0.0 0.00 0.00 0.00 88 1010.0
20260509213601 58 301 1.7 1.7 0.00 0.00 0.00 87 1009.7
20260509213058 58 331 0.0 0.0 0.00 0.00 0.00 87 1009.7
20260509212555 58 311 0.0 0.0 0.00 0.00 0.00 86 1010.1
20260509212053 58 312 0.0 0.0 0.00 0.00 0.00 85 1010.1
20260509211548 59 303 0.9 0.9 0.00 0.00 0.00 85 1010.0
20260509211045 59 306 0.9 0.9 0.00 0.00 0.00 86 1010.1
20260509210542 58 312 0.9 1.7 0.00 0.00 0.00 86 1010.1
20260509210038 58 305 1.7 2.6 0.00 0.00 0.00 86 1009.8
20260509205538 58 315 0.9 0.9 0.00 0.00 0.00 87 1010.0
20260509205033 58 306 0.0 0.0 0.00 0.00 0.00 87 1010.2
20260509204530 58 296 0.0 0.0 0.00 0.04 0.04 87 1010.2
20260509204026 58 304 1.7 1.7 0.00 0.04 0.04 85 1010.3
20260509203522 58 307 0.9 0.9 0.00 0.04 0.04 87 1010.2
20260509203021 58 296 0.9 0.9 0.00 0.04 0.04 86 1010.0
20260509202515 58 307 2.6 2.6 0.00 0.04 0.04 86 1010.1
20260509202011 58 309 1.7 1.7 0.00 0.04 0.04 87 1010.2
20260509201506 58 299 1.7 1.7 0.00 0.04 0.04 87 1010.1
20260509201004 59 307 0.0 0.0 0.00 0.04 0.04 88 1010.1
20260509200458 59 303 0.0 0.0 0.00 0.04 0.04 89 1010.2
20260509195955 59 293 0.0 0.0 0.00 0.04 0.04 87 1010.1
20260509195450 59 289 0.0 0.0 0.00 0.04 0.04 88 1010.6
20260509194950 59 305 0.0 0.0 0.00 0.04 0.04 89 1010.5
20260509194446 59 272 0.0 0.9 0.00 0.04 0.04 89 1010.2
20260509193943 59 310 0.0 0.0 0.00 0.04 0.04 90 1010.2
20260509193443 59 344 0.9 1.7 0.00 0.04 0.04 89 1010.3
20260509192939 59 321 0.0 0.0 0.00 0.04 0.04 90 1010.3
20260509192436 59 331 0.0 0.0 0.00 0.04 0.04 90 1010.3
20260509191931 59 34 0.0 1.7 0.00 0.04 0.04 90 1010.1
20260509191426 60 354 3.5 3.5 0.00 0.04 0.04 88 1010.2
20260509190922 59 306 0.0 0.0 0.00 0.04 0.04 87 1009.9
20260509190420 59 318 0.0 0.0 0.00 0.04 0.04 86 1010.0
20260509185917 59 310 0.0 0.0 0.00 0.04 0.04 88 1010.1
20260509185415 59 322 0.0 0.0 0.05 0.04 0.04 91 1010.0
20260509184911 59 302 0.0 0.9 0.12 0.04 0.04 90 1010.2
20260509184408 59 221 1.7 2.6 0.07 0.03 0.03 89 1011.1
20260509183905 59 162 2.6 5.2 0.05 0.02 0.02 87 1011.0
20260509183359 59 306 0.9 1.7 0.05 0.02 0.02 87 1010.8
20260509182856 59 284 1.7 1.7 0.07 0.01 0.01 87 1010.7
20260509182353 60 28 2.6 2.6 0.07 0.01 0.01 86 1010.8
20260509181850 61 50 1.7 2.6 0.00 0.00 0.00 81 1010.4
20260509181347 61 208 0.9 1.7 0.00 0.00 0.00 79 1010.2
20260509180845 61 191 1.7 1.7 0.00 0.00 0.00 81 1010.0